Location: Banff
(51.1667°N, 115.5667°W)
Time: 06:41:22
(UTC+00:00)

S-56A Canister/Altair - Pass Details

Date: 01 December 2020
Orbit: 633 x 2499 km, 38.9° (Epoch: 21 January)

Event Time Altitude Azimuth Distance (km) Brightness Sun altitude
Rises 04:36:10 0° 251° (WSW) 5,378 12.3 -45.2°
Reaches altitude 10° 04:40:28 10° 244° (WSW) 4,079 11.5 -45.9°
Enters shadow 04:44:40 23° 229° (SW) 2,872 10.5 -46.5°
Maximum altitude 04:49:20 35° 184° (S) 2,005 - -47.1°
Drops below altitude 10° 04:55:33 10° 121° (ESE) 2,829 - -48.0°
Sets 04:57:59 0° 112° (ESE) 3,575 - -48.3°
